Showing default

OPS 4467 A, 812

Orbit data source: Space-Track

OPS 4467 A, 812 is an American payload satellite in SSO that was launched on Thu, 18 Jun 1964 UTC via a THOR SLV-2 AGENA D launch vehicle from the Air Force Western Test Range (AFWTR). Payload-class satellites include a variety of spacecraft equipped with specific instruments for various scientific and technological missions. These include communications satellites like Starlink; space stations such as the ISS; scientific satellites like the Hubble; Earth observation satellites from companies like Planet Labs, Umbra, and HawkEye 360; GPS; miniature CubeSats for education and research; and military/defense satellites.

Loading next visibility...
Identifier
812, 1964-031A
Orbit
SSO
Country
Flag of USUS
Related business
Manufacturer
RCA/East Windsor
Mission
Spacecraft
Bus & Motor
P35, Unknown motor
Mass
50 kg wet, 50 kg dry
Launch date (UTC)
1964-06-18 (62 years ago)
Launch vehicle
THOR SLV-2 AGENA D
Launch site
Air Force Western Test Range (AFWTR)
Object type
Payload
Rocket body
Debris
Shape & HBR
Unknown
Radar Cross Section
Medium (>0.1 m² and <1 m²)

Expand to show TLE details & history
Last TLE update: 14 hours ago

TLE from 14 hours ago
0 OPS 4467 A
1 00812U 64031A   26105.88137582  .00000022  00000-0  32878-4 0  9997
2 00812  99.8116 253.9387 0004743 259.8630 100.2010 14.24582962207427
Epoch: 2026-04-15T21:09Z
TLE epoch observation values (Epoch: 2026-04-15T21:09:10.870Z)
Latitude
-0.00008°
Longitude
92.60651°
Altitude
813.384 km
Speed
7.446 km/s
True Right ascension
16h 55m 45s
True Declination
0° 00' 00"
Sunlit
Object was in full shadow at epoch
Visualization orbit readout
Latitude
Unknown
Longitude
Unknown
Altitude
Unknown
Speed
Unknown
Apparent Right ascension
Unknown
Apparent Declination
Unknown
Sunlit
N/A
Visualization observer readout
Local Sidereal Time
18:03:02
Azimuth
Unknown
Elevation
Unknown
Doppler factor
Unknown
Orbital elements
Apogee altitude
810.512 km
Perigee altitude
803.696 km
Semi-major axis
7,185.241 km
Eccentricity
0.00047
Inclination
99.8116°
RAAN
253.9387°
Arg. of periapsis
259.863°
True anomaly
100.25449°
Mean anomaly
100.201°
Eccentric anomaly
100.22774°
Mean motion
3.56354 °/min
Orbital period
101.02 mins
BSTAR
0.000032878
Loading maneuver chart data...
Computing Atmospheric mass density...
Loading historical data...
Loading historical data...
Loading historical data...
Loading historical data...
Loading historical data...
Loading historical data...
Loading historical data...
Other satellites on launch #31 in the year 1964 (1964-06-18 UTC)

Documentation

Showing up to 5 results
|